Torna al catalogo

STARLINK-35170

AttivoComunicazioniSSO
NORAD 65532·PAYLOAD·🇺🇸 United States

Lanciato Sep 6, 2025 da Cape Canaveral Space Force Station

Loading…

Prossimi Passaggi (prossime 24 ore)

TLE

AggiornatoSource: CelesTrak SupGP

Epoca: Sep 14, 2026, 20:50 UTC

1 65532C 25200N   26257.86854167 -.00034192  00000+0 -10615-2 0  2579
2 65532  97.2844 324.3817 0000952  99.6324 168.6667 15.33454119    11

Traccia STARLINK-35170 in tempo reale con AllMySat

Download on the App Store